Moline, IL

11:30 PM CDT on September 29, 2016 (GMT -0500)
Quad-City International

Weather History for KMLI - April, 2013

Change the Weather History Date:

Wednesday, April 10, 2013

  Actual Average Record
Temperature  
Mean Temperature 42 °F 49 °F  
Max Temperature 44 °F 60 °F 91 °F (1930)
Min Temperature 39 °F 39 °F 21 °F (1960)
Degree Days  
Heating Degree Days 23 16  
Month to date heating degree days 184 175  
Since 1 July heating degree days 5851 5777  
Cooling Degree Days 0 0  
Month to date cooling degree days 0 0  
Year to date cooling degree days 0 1  
Moisture  
Dew Point 38 °F    
Average Humidity 88    
Maximum Humidity 93    
Minimum Humidity 83    
Precipitation  
Precipitation 1.45 in 0.12 in 1.65 in (1995)
Month to date precipitation 2.27 1.12  
Year to date precipitation 10.24 7.07  
Snow  
Snow 0.00 in 0.10 in - ()
Month to date snowfall 0.0 0.6  
Since 1 July snowfall 34.5 31.3  
Snow Depth 0.00 in    
Sea Level Pressure  
Sea Level Pressure 29.86 in    
Wind  
Wind Speed 14 mph (NE)    
Max Wind Speed 31 mph    
Max Gust Speed 38 mph    
Visibility 7 miles    
Events Rain , Thunderstorm    
T = Trace of Precipitation, MM = Missing Value Source: NWS Daily Summary

Daily Weather History Graph

Daily Weather History Graph

Search for Another Location

Airport or City:

Trip Planner

Search our weather history database for the weather conditions in past years. The results will help you decide how hot, cold, wet, or windy it might be!

Date:

Astronomy

Apr. 10, 2013 Rise Set
Actual Time 6:29 AM CDT 7:37 PM CDT
Civil Twilight 6:01 AM CDT 8:05 PM CDT
Nautical Twilight 5:27 AM CDT 8:39 PM CDT
Astronomical Twilight 4:52 AM CDT 9:15 PM CDT
Moon 6:25 AM CDT (4/10) 8:14 PM CDT (4/10)
Length of Visible Light 14h 04m
Length of Day
13h 07m
New Moon, 0% of the Moon is Illuminated
Apr 10
New Moon
Apr 18
First Quarter
Apr 25
Full
May 2
Last Quarter
May 9
New

Hourly Weather History & Observations

Time (CDT) Temp. Windchill Dew Point Humidity Pressure Visibility Wind Dir Wind Speed Gust Speed Precip Events Conditions
12:52 AM 44.1 °F 37.1 °F 39.9 °F 85% 29.85 in 10.0 mi ENE 15.0 mph - N/A   Overcast
1:52 AM 44.1 °F 37.1 °F 39.9 °F 85% 29.84 in 10.0 mi ENE 15.0 mph - N/A   Overcast
2:52 AM 44.1 °F 38.6 °F 39.9 °F 85% 29.84 in 9.0 mi ENE 10.4 mph - N/A   Overcast
3:25 AM 44.6 °F 37.2 °F 39.2 °F 81% 29.82 in 8.0 mi ENE 17.3 mph 21.9 mph N/A   Overcast
3:52 AM 44.1 °F 38.6 °F 39.9 °F 85% 29.84 in 8.0 mi North 10.4 mph 19.6 mph N/A   Overcast
3:59 AM 44.6 °F 38.4 °F 39.2 °F 81% 29.86 in 8.0 mi NNE 12.7 mph 24.2 mph N/A Thunderstorm Thunderstorm
4:13 AM 42.8 °F 35.8 °F 39.2 °F 87% 29.91 in 5.0 mi North 13.8 mph 26.5 mph 0.01 in Rain , Thunderstorm Thunderstorms and Rain
4:43 AM 41.0 °F 32.5 °F 39.2 °F 93% 29.86 in 5.0 mi NNE 17.3 mph 26.5 mph 0.14 in Rain Light Rain
4:52 AM 41.0 °F 31.6 °F 37.9 °F 89% 29.86 in 10.0 mi NNE 20.7 mph 31.1 mph 0.14 in Rain Light Rain
5:14 AM 41.0 °F 33.1 °F 37.4 °F 87% 29.85 in 7.0 mi NE 15.0 mph 25.3 mph 0.06 in Rain , Thunderstorm Light Rain
5:31 AM 39.2 °F 35.0 °F 37.4 °F 93% 30.03 in 2.5 mi Variable 5.8 mph 38.0 mph 0.08 in Rain , Thunderstorm Heavy Thunderstorms and Rain
5:36 AM 39.2 °F 30.2 °F 37.4 °F 93% 29.90 in 1.2 mi ENE 17.3 mph 23.0 mph 0.25 in Rain , Thunderstorm Heavy Thunderstorms and Rain
5:41 AM 39.2 °F 30.5 °F 37.4 °F 93% 29.86 in 1.5 mi NE 16.1 mph 24.2 mph 0.38 in Rain , Thunderstorm Heavy Thunderstorms and Rain
5:46 AM 39.2 °F 29.8 °F 37.4 °F 93% 29.85 in 3.0 mi ENE 18.4 mph 27.6 mph 0.41 in Rain , Thunderstorm Thunderstorms and Rain
5:52 AM 39.0 °F 28.8 °F 37.0 °F 93% 29.79 in 5.0 mi NE 21.9 mph 31.1 mph 0.42 in Rain , Thunderstorm Light Thunderstorms and Rain
6:19 AM 39.2 °F 29.0 °F 35.6 °F 87% 29.84 in 10.0 mi ENE 21.9 mph 29.9 mph 0.00 in   Mostly Cloudy
6:30 AM 39.2 °F 29.3 °F 35.6 °F 87% 29.86 in 10.0 mi East 20.7 mph 27.6 mph 0.00 in   Mostly Cloudy
6:50 AM 39.2 °F 30.5 °F 35.6 °F 87% 29.84 in 10.0 mi ENE 16.1 mph - 0.00 in   Mostly Cloudy
6:52 AM 39.0 °F 30.3 °F 36.0 °F 89% 29.84 in 10.0 mi ENE 16.1 mph - 0.00 in   Mostly Cloudy
6:59 AM 39.2 °F 30.2 °F 35.6 °F 87% 29.84 in 10.0 mi ENE 17.3 mph - N/A   Mostly Cloudy
7:52 AM 39.0 °F 33.4 °F 36.0 °F 89% 29.88 in 10.0 mi NE 8.1 mph - 0.00 in   Scattered Clouds
8:13 AM 39.2 °F 35.0 °F 35.6 °F 87% 29.87 in 10.0 mi NE 5.8 mph - N/A   Mostly Cloudy
8:52 AM 39.9 °F 35.1 °F 37.0 °F 89% 29.99 in 10.0 mi WSW 6.9 mph - 0.00 in Rain Light Rain
9:26 AM 39.2 °F 30.5 °F 37.4 °F 93% 29.81 in 6.0 mi NNE 16.1 mph - 0.07 in Rain Rain
9:41 AM 39.2 °F 31.2 °F 37.4 °F 93% 29.81 in 10.0 mi ENE 13.8 mph 20.7 mph 0.07 in Rain Light Rain
9:50 AM 41.0 °F 33.5 °F 37.4 °F 87% 29.82 in 10.0 mi ENE 13.8 mph 23.0 mph 0.07 in   Overcast
9:52 AM 41.0 °F 33.9 °F 37.9 °F 89% 29.84 in 10.0 mi ENE 12.7 mph 23.0 mph 0.07 in   Overcast
10:52 AM 41.0 °F 36.4 °F 37.9 °F 89% 29.91 in 10.0 mi NNE 6.9 mph - 0.02 in Rain Light Rain
11:52 AM 41.0 °F 33.5 °F 37.9 °F 89% 29.89 in 10.0 mi ENE 13.8 mph 19.6 mph 0.00 in Rain Light Rain
12:52 PM 42.1 °F 38.4 °F 39.0 °F 89% 29.98 in 6.0 mi North 5.8 mph - 0.04 in Rain Light Rain
12:59 PM 42.8 °F 38.0 °F 39.2 °F 87% 29.95 in 5.0 mi NNE 8.1 mph - 0.00 in Rain Light Rain
1:23 PM 42.8 °F 34.8 °F 39.2 °F 87% 29.87 in 10.0 mi NE 17.3 mph 23.0 mph 0.01 in   Overcast
1:43 PM 41.0 °F 33.5 °F 37.4 °F 87% 29.88 in 5.0 mi NNE 13.8 mph 24.2 mph 0.01 in Rain Rain
1:52 PM 41.0 °F 35.2 °F 39.0 °F 93% 29.91 in 5.0 mi NNE 9.2 mph - 0.03 in Rain Rain
2:00 PM 41.0 °F 34.7 °F 39.2 °F 93% 29.90 in 5.0 mi NNE 10.4 mph - 0.01 in Rain Light Rain
2:02 PM 42.8 °F 37.0 °F 39.2 °F 87% 29.90 in 6.0 mi NNE 10.4 mph 16.1 mph 0.01 in Rain Light Rain
2:52 PM 42.1 °F 38.4 °F 39.0 °F 89% 29.93 in 5.0 mi East 5.8 mph - 0.06 in Rain Light Rain
3:52 PM 42.1 °F 34.5 °F 39.0 °F 89% 29.88 in 10.0 mi East 15.0 mph 23.0 mph 0.02 in   Overcast
4:52 PM 42.1 °F 34.9 °F 39.9 °F 92% 29.88 in 7.0 mi East 13.8 mph - 0.03 in Rain Light Rain
5:03 PM 42.8 °F 36.2 °F 39.2 °F 87% 29.84 in 9.0 mi ENE 12.7 mph - 0.00 in Rain Light Rain
5:52 PM 43.0 °F 34.5 °F 39.9 °F 89% 29.78 in 10.0 mi ENE 19.6 mph 27.6 mph 0.00 in   Overcast
6:52 PM 42.1 °F 34.2 °F 39.0 °F 89% 29.80 in 8.0 mi ENE 16.1 mph 31.1 mph 0.00 in Rain Light Rain
7:52 PM 41.0 °F 32.5 °F 39.0 °F 93% 29.81 in 4.0 mi ENE 17.3 mph 24.2 mph 0.11 in Rain Heavy Rain
8:44 PM 41.0 °F 32.5 °F 39.2 °F 93% 29.78 in 5.0 mi ENE 17.3 mph - 0.15 in Rain , Thunderstorm Rain
8:52 PM 41.0 °F 33.9 °F 39.0 °F 93% 29.81 in 4.0 mi ENE 12.7 mph - 0.18 in Rain , Thunderstorm Heavy Rain
8:59 PM 41.0 °F 33.5 °F 39.2 °F 93% 29.79 in 4.0 mi NE 13.8 mph 20.7 mph 0.04 in Rain Rain
9:52 PM 41.0 °F 33.9 °F 39.0 °F 93% 29.83 in 7.0 mi ENE 12.7 mph - 0.19 in Rain Rain
10:09 PM 41.0 °F 33.5 °F 39.2 °F 93% 29.80 in 7.0 mi ENE 13.8 mph - 0.04 in Rain Light Rain
10:52 PM 41.0 °F 32.8 °F 37.9 °F 89% 29.79 in 6.0 mi ENE 16.1 mph 21.9 mph 0.13 in Rain Light Rain
11:52 PM 41.0 °F 31.4 °F 37.9 °F 89% 29.72 in 10.0 mi ENE 21.9 mph 36.8 mph 0.01 in   Overcast